Location: Unspecified
(33.6682°S, 0.0000°E)
Time: 00:56:52
(UTC+00:00)

Tiros 1 despin weight - Pass Details

Date: 17 June 2019
Orbit: 594 x 642 km, 48.2° (Epoch: 19 August)

Event Time Altitude Azimuth Distance (km) Brightness Sun altitude
Rises 18:57:25 0° 230° (SW) 2,964 ? -24.0°
Reaches altitude 10° 18:59:47 10° 227° (SW) 2,046 ? -24.5°
Enters shadow 19:03:36 54° 200° (SSW) 780 ? -25.2°
Maximum altitude 19:04:29 68° 144° (SE) 687 - -25.4°
Drops below altitude 10° 19:09:06 10° 60° (ENE) 2,003 - -26.3°
Sets 19:11:24 0° 57° (ENE) 2,897 - -26.8°
